Regional Weather Roundup
Issued by NWS

Home | Current Version | Previous Version | Graphics & Text | Print | Product List | Glossary On
Versions: 1 2 3 4 5 6 7 8 9 10 11 12 13 14 15 16 17 18 19 20 21 22 23 24 25 26 27
000
ASUS45 KTFX 272010
RWRMT
MONTANA REGIONAL WEATHER ROUNDUP
NATIONAL WEATHER SERVICE GREAT FALLS MT
200 PM MDT WED APR 27 2016

NOTE: "FAIR" INDICATES FEW OR NO CLOUDS BELOW 12000 FEET WITH NO
SIGNIFICANT WEATHER AND/OR OBSTRUCTIONS TO VISIBILITY.

MTZ001>007-043-272100-
WEST OF THE DIVIDE

CITY           SKY/WX    TMP DP  RH WIND       PRES   REMARKS
KALISPELL      PTSUNNY   59  33  37 E10G20    29.91F
MISSOULA       CLOUDY    57  32  38 SE9G17    29.90F
BUTTE          CLOUDY    41  26  55 SE5       29.93F
MULLAN PASS    LGT RAIN  42  33  70 SE7       29.91S
ANACONDA         N/A     45  28  53 N9        29.94S
DEER LODGE       N/A     45  30  57 NE10      29.96S
EUREKA           N/A     61  36  39 W6        29.90F
HAMILTON         N/A     55  32  41 NW6G18    29.86F
LIBBY            N/A     57  37  47 SE3       29.90F
PLAINS           N/A     65  38  36 NE1       29.89F
$$

MTZ008-052>055-272100-
SOUTHWEST MONTANA

CITY           SKY/WX    TMP DP  RH WIND       PRES   REMARKS
BOZEMAN        CLOUDY    45  34  65 VRB5      29.94F
DILLON         CLOUDY    47  26  44 VRB7      29.90F
ENNIS          CLOUDY    43  27  52 NW15      29.97F
THREE FORKS      N/A     46  46 100 CALM      29.95F
TWIN BRIDGES     N/A     48  25  41 S21       29.92S
$$

MTZ009-010-012-014-046-048-049-054-272100-
EAST SLOPES AND CENTRAL MONTANA

CITY           SKY/WX    TMP DP  RH WIND       PRES   REMARKS
GREAT FALLS    LGT SNOW  35  32  88 NE7       30.03S FOG     WCI  29
HELENA         CLOUDY    48  31  51 N12G22    29.98S
CHOTEAU          N/A     39  36  87 NE8       30.04S
CONRAD           N/A     41  37  85 NE3       30.06S
$$

MTZ011-013-016-021-045-047-050-051-272100-
NORTH CENTRAL MONTANA

CITY           SKY/WX    TMP DP  RH WIND       PRES   REMARKS
HAVRE          CLOUDY    41  36  82 E12       30.07S
LEWISTOWN      CLOUDY    38  30  73 N6        29.99S
N BAR RANCH    LGT SNOW  34  32  93 N9        29.98S WCI  26
CHINOOK          N/A     41  37  87 NE13G18   30.07S
$$

MTZ017>020-022>027-061-062-272100-
NORTHEAST MONTANA

CITY           SKY/WX    TMP DP  RH WIND       PRES   REMARKS
GLASGOW        LGT RAIN  40  37  89 E17       30.04S
JORDAN           N/A     37  35  92 NE8       29.99S WCI  31
SIDNEY         CLOUDY    43  34  70 E15G21    30.02R
WOLF POINT     CLOUDY    44  38  79 NE13      30.04S
PLENTYWOOD       N/A     50  25  37 NE15G21   30.03S
SCOBEY           N/A     47  27  46 E15       30.03R
$$

MTZ028>42-056>058-272100-
SOUTHCENTRAL AND SOUTHEAST MONTANA

CITY           SKY/WX    TMP DP  RH WIND       PRES   REMARKS
BAKER          LGT SNOW  34  31  88 N6        29.94S VSB 3/4 WCI  29
BILLINGS       CLOUDY    40  32  73 NE12      29.96F
LIVINGSTON     CLOUDY    44  36  73 NE7       29.93F
MILES CITY     LGT RAIN  38  35  89 N13       29.96S FOG     WCI  30
EKALAKA          N/A     32  30  92 NW6       29.90R WCI  26
FORSYTH          N/A     37  37 100 N10       29.96S WCI  30
LAUREL           N/A     39  28  65 N6        29.95F
ROUNDUP          N/A     37  32  82 NW9       29.90S WCI  30
$$

REGIONAL REPORTS...DAKOTAS

CITY           SKY/WX    TMP DP  RH WIND       PRES   REMARKS
WILLISTON      CLOUDY    49  21  33 E21       30.02R
MINOT          CLOUDY    59  21  23 E20G26    30.00F
DICKINSON      LGT RAIN  35  33  92 NE9       29.92S WCI  28
BEACH          LGT SNOW  32  32 100 NE8       29.99S WCI  25
CROSBY         PTSUNNY   54  23  30 E15       30.06R
TIOGA          CLOUDY    48  25  40 E23       30.05F
WATFORD CITY   PTSUNNY   45  28  53 E15       30.00S
BISMARCK       CLOUDY    48  34  58 NE17G26   29.92F
GRAND FORKS    CLOUDY    57  25  29 E17G25    30.00F
FARGO          CLOUDY    57  21  24 NE17G29   29.89F
BUFFALO SD       N/A     35  32  88 N10       29.83R WCI  27
RAPID CITY     FLURRIES  37  35  92 N26G40    29.80S WCI  25
$$

REGIONAL REPORTS...WYOMING/IDAHO/WASHINGTON

CITY           SKY/WX    TMP DP  RH WIND       PRES   REMARKS
GILLETTE       FLURRIES  35  35 100 N15       29.88S WCI  25
SHERIDAN       CLOUDY    40  33  76 N20       29.92S
BUFFALO WY     CLOUDY    37  30  75 N20G28    29.89S WCI  27
CODY           CLOUDY    39  34  81 N12       29.91F WCI  32
YELLOWSTONE LA   N/A     35  22  58 VRB3      29.89F
IDAHO FALLS    PTSUNNY   54  26  34 CALM      29.84F
SALMON         SUNNY     57  30  35 N5        29.81F
BOISE          CLOUDY    59  37  44 NW12      29.84F
SPOKANE        MOSUNNY   60  37  42 VRB6      29.88F
$$

REGIONAL REPORTS...ALBERTA

CITY           SKY/WX    TMP DP  RH WIND       PRES   REMARKS
EDMONTON       MOSUNNY   59  32  36 E7        30.05R
CALGARY        MOSUNNY   50  34  53 SE14G21   30.06R
LETHBRIDGE     CLOUDY    46  36  66 VRB8G17   30.07S
MEDICINE HAT   LGT RAIN  46  36  66 E9        30.11R
WATERTON GATE    N/A     41  32  70 E7          N/A
ONEFOUR          N/A     39  36  87 E12         N/A  WCI  32
$$

REGIONAL REPORTS...SASKATCHEWAN

CITY           SKY/WX    TMP DP  RH WIND       PRES   REMARKS
SWIFT CURRENT  CLOUDY    50  27  40 E13G25    30.08R
REGINA         CLOUDY    54  19  26 E13G23    30.10S
SASKATOON      CLOUDY    59  21  23 VRB8      30.13R
VAL MARIE        N/A     43  34  70 E13         N/A
ROCKGLEN         N/A     46  28  49 E6          N/A
$$




USA.gov is the U.S. government's official web portal to all federal, state and local government web resources and services.